TimeCST,TemperatureF,Dew PointF,Humidity,Sea Level PressureIn,VisibilityMPH,Wind Direction,Wind SpeedMPH,Gust SpeedMPH,PrecipitationIn,Events,Conditions,WindDirDegrees,DateUTC
12:14 AM,10.4,6.8,85,30.14,10.0,WNW,6.9,-,N/A,,Clear,290,2013-01-06 06:14:00
12:34 AM,10.4,6.8,85,30.14,10.0,WNW,11.5,-,N/A,,Clear,300,2013-01-06 06:34:00
12:53 AM,8.6,5.0,85,30.14,10.0,WNW,9.2,-,N/A,,Clear,290,2013-01-06 06:53:00
1:14 AM,8.6,5.0,85,30.15,10.0,NW,8.1,-,N/A,,Clear,310,2013-01-06 07:14:00
1:34 AM,8.6,6.8,92,30.15,10.0,WNW,8.1,-,N/A,,Mostly Cloudy,300,2013-01-06 07:34:00
1:53 AM,8.6,6.8,92,30.15,10.0,WNW,6.9,-,N/A,,Overcast,290,2013-01-06 07:53:00
2:14 AM,8.6,3.2,79,30.14,10.0,West,6.9,-,N/A,,Mostly Cloudy,260,2013-01-06 08:14:00
2:34 AM,8.6,5.0,85,30.16,10.0,NW,3.5,-,N/A,,Overcast,310,2013-01-06 08:34:00
2:53 AM,8.6,6.8,92,30.15,10.0,WSW,3.5,-,N/A,,Overcast,240,2013-01-06 08:53:00
3:14 AM,12.2,8.6,85,30.14,10.0,West,4.6,-,N/A,,Overcast,260,2013-01-06 09:14:00
3:34 AM,12.2,8.6,85,30.14,10.0,West,4.6,-,N/A,,Overcast,270,2013-01-06 09:34:00
4:14 AM,12.2,8.6,85,30.14,10.0,Calm,Calm,-,N/A,,Overcast,0,2013-01-06 10:14:00
4:34 AM,12.2,8.6,85,30.15,10.0,Calm,Calm,-,N/A,,Overcast,0,2013-01-06 10:34:00
4:53 AM,12.2,8.6,85,30.15,10.0,Calm,Calm,-,N/A,,Overcast,0,2013-01-06 10:53:00
5:33 AM,10.4,8.6,92,30.15,10.0,Calm,Calm,-,N/A,,Clear,0,2013-01-06 11:33:00
5:54 AM,12.2,8.6,85,30.16,10.0,Calm,Calm,-,N/A,,Clear,0,2013-01-06 11:54:00
6:33 AM,10.4,6.8,85,30.17,10.0,WSW,3.5,-,N/A,,Clear,250,2013-01-06 12:33:00
6:54 AM,8.6,6.8,92,30.17,10.0,Calm,Calm,-,N/A,,Clear,0,2013-01-06 12:54:00
7:14 AM,8.6,3.2,79,30.18,10.0,West,3.5,-,N/A,,Clear,260,2013-01-06 13:14:00
7:33 AM,8.6,5.0,85,30.18,10.0,West,4.6,-,N/A,,Clear,260,2013-01-06 13:33:00
7:54 AM,6.8,1.4,79,30.19,10.0,West,3.5,-,N/A,,Clear,270,2013-01-06 13:54:00
8:14 AM,6.8,3.2,85,30.20,10.0,Calm,Calm,-,N/A,,Clear,0,2013-01-06 14:14:00
8:33 AM,5.0,1.4,85,30.20,10.0,West,3.5,-,N/A,,Clear,260,2013-01-06 14:33:00
8:54 AM,6.8,1.4,79,30.20,10.0,West,3.5,-,N/A,,Clear,260,2013-01-06 14:54:00
9:13 AM,6.8,3.2,85,30.21,10.0,West,5.8,-,N/A,,Clear,260,2013-01-06 15:13:00
9:34 AM,6.8,3.2,85,30.21,10.0,WSW,3.5,-,N/A,,Clear,240,2013-01-06 15:34:00
9:54 AM,6.8,3.2,85,30.21,10.0,West,3.5,-,N/A,,Clear,260,2013-01-06 15:54:00
10:13 AM,8.6,5.0,85,30.22,10.0,Calm,Calm,-,N/A,,Clear,0,2013-01-06 16:13:00
10:34 AM,10.4,6.8,85,30.21,10.0,West,5.8,-,N/A,,Clear,260,2013-01-06 16:34:00
10:54 AM,10.4,6.8,85,30.21,10.0,Calm,Calm,-,N/A,,Clear,0,2013-01-06 16:54:00
11:13 AM,12.2,6.8,79,30.21,10.0,Calm,Calm,-,N/A,,Clear,0,2013-01-06 17:13:00
11:34 AM,15.8,8.6,73,30.21,10.0,West,4.6,-,N/A,,Clear,270,2013-01-06 17:34:00
11:53 AM,15.8,8.6,73,30.20,10.0,Calm,Calm,-,N/A,,Clear,0,2013-01-06 17:53:00
12:13 PM,15.8,10.4,79,30.18,10.0,Calm,Calm,-,N/A,,Clear,0,2013-01-06 18:13:00
12:34 PM,15.8,10.4,79,30.17,10.0,Calm,Calm,-,N/A,,Clear,0,2013-01-06 18:34:00
12:53 PM,15.8,10.4,79,30.16,10.0,South,4.6,-,N/A,,Clear,170,2013-01-06 18:53:00
1:14 PM,17.6,10.4,73,30.16,10.0,SSW,5.8,-,N/A,,Clear,210,2013-01-06 19:14:00
1:34 PM,17.6,10.4,73,30.16,10.0,South,4.6,-,N/A,,Clear,190,2013-01-06 19:34:00
1:53 PM,17.6,12.2,79,30.14,10.0,SSE,6.9,-,N/A,,Clear,160,2013-01-06 19:53:00
2:14 PM,17.6,10.4,73,30.13,10.0,SSE,6.9,-,N/A,,Clear,160,2013-01-06 20:14:00
2:34 PM,17.6,12.2,79,30.12,10.0,SSE,6.9,-,N/A,,Clear,160,2013-01-06 20:34:00
2:53 PM,17.6,12.2,79,30.13,10.0,SSE,6.9,-,N/A,,Clear,160,2013-01-06 20:53:00
3:14 PM,15.8,10.4,79,30.13,10.0,SSE,8.1,-,N/A,,Clear,160,2013-01-06 21:14:00
3:34 PM,15.8,10.4,79,30.12,10.0,SSE,6.9,-,N/A,,Clear,150,2013-01-06 21:34:00
3:53 PM,15.8,10.4,79,30.12,10.0,SSE,8.1,-,N/A,,Clear,150,2013-01-06 21:53:00
4:14 PM,15.8,10.4,79,30.12,10.0,SSE,6.9,-,N/A,,Clear,150,2013-01-06 22:14:00
4:53 PM,15.8,10.4,79,30.10,10.0,SSE,9.2,-,N/A,,Clear,160,2013-01-06 22:53:00
5:14 PM,14.0,10.4,86,30.09,10.0,SSE,9.2,-,N/A,,Clear,150,2013-01-06 23:14:00
5:34 PM,14.0,10.4,86,30.08,10.0,SSE,10.4,-,N/A,,Clear,150,2013-01-06 23:34:00
5:53 PM,14.0,10.4,86,30.07,10.0,SSE,12.7,-,N/A,,Clear,150,2013-01-06 23:53:00
6:14 PM,15.8,10.4,79,30.05,10.0,SSE,13.8,-,N/A,,Clear,150,2013-01-07 00:14:00
6:34 PM,17.6,12.2,79,30.02,10.0,SSE,15.0,-,N/A,,Clear,150,2013-01-07 00:34:00
6:53 PM,15.8,10.4,79,30.02,10.0,SSE,12.7,-,N/A,,Clear,150,2013-01-07 00:53:00
7:14 PM,15.8,10.4,79,30.00,10.0,SSE,13.8,-,N/A,,Clear,150,2013-01-07 01:14:00
7:34 PM,15.8,10.4,79,29.98,10.0,SSE,15.0,-,N/A,,Clear,150,2013-01-07 01:34:00
7:53 PM,17.6,12.2,79,29.97,10.0,SSE,16.1,-,N/A,,Clear,150,2013-01-07 01:53:00
8:14 PM,15.8,12.2,86,29.95,10.0,SSE,15.0,-,N/A,,Clear,150,2013-01-07 02:14:00
8:34 PM,15.8,12.2,86,29.93,10.0,SSE,12.7,-,N/A,,Clear,150,2013-01-07 02:34:00
8:53 PM,15.8,12.2,86,29.92,10.0,SSE,15.0,-,N/A,,Clear,160,2013-01-07 02:53:00
9:14 PM,17.6,12.2,79,29.90,10.0,SSE,13.8,-,N/A,,Clear,160,2013-01-07 03:14:00
9:34 PM,17.6,12.2,79,29.88,10.0,SSE,16.1,-,N/A,,Clear,160,2013-01-07 03:34:00
9:53 PM,19.4,15.8,86,29.86,10.0,SSE,17.3,-,N/A,,Clear,160,2013-01-07 03:53:00
10:34 PM,21.2,15.8,80,29.84,10.0,SSE,12.7,-,N/A,,Clear,160,2013-01-07 04:34:00
10:53 PM,26.6,19.4,74,29.83,10.0,SSW,21.9,-,N/A,,Clear,200,2013-01-07 04:53:00
11:34 PM,28.4,19.4,69,29.82,10.0,South,15.0,-,N/A,,Clear,180,2013-01-07 05:34:00
11:53 PM,28.4,19.4,69,29.82,10.0,South,15.0,-,N/A,,Clear,190,2013-01-07 05:53:00